Change the Weather History Date:

Friday, August 15, 2014

  Actual Average Record
Temperature  
Mean Temperature 74 °F 72 °F  
Max Temperature 86 °F 86 °F 100 °F (1937)
Min Temperature 61 °F 59 °F 44 °F (1938)
Degree Days  
Heating Degree Days 0    
Month to date heating degree days 0  
Cooling Degree Days 9    
Month to date cooling degree days 125  
Growing Degree Days 23 (Base 50)    
Moisture  
Dew Point 58 °F    
Average Humidity 65    
Maximum Humidity 93    
Minimum Humidity 37    
Precipitation  
Precipitation T in 0.08 in 0.42 in (1953)
Month to date precipitation 1.00 1.30  
Year to date precipitation 11.79 12.49  
Sea Level Pressure  
Sea Level Pressure 29.90 in    
Wind  
Wind Speed 11 mph (WNW)    
Max Wind Speed 28 mph    
Max Gust Speed 40 mph    
Visibility 10 miles    
Events Thunderstorm    
T = Trace of Precipitation, MM = Missing Value Source: NWS Daily Summary

Daily Weather History Graph

Daily Weather History Graph

Search for Another Location

Airport or City:

Trip Planner

Search our weather history database for the weather conditions in past years. The results will help you decide how hot, cold, wet, or windy it might be!

Date:

Astronomy

Aug. 15, 2014 Rise Set
Actual Time 6:04 AM MDT 7:49 PM MDT
Civil Twilight 5:35 AM MDT 8:18 PM MDT
Nautical Twilight 4:59 AM MDT 8:53 PM MDT
Astronomical Twilight 4:21 AM MDT 9:31 PM MDT
Moon 10:53 PM MDT (8/15) 11:49 AM MDT (8/15)
Length of Visible Light 14h 43m
Length of Day
13h 45m
Waning Gibbous, 68% of the Moon is Illuminated
Aug 15
Waning Gibbous
Aug 17
Last Quarter
Aug 25
New
Sep 2
First Quarter
Sep 8
Full

Hourly Weather History & Observations

Time (MDT) Temp. Heat Index Dew Point Humidity Pressure Visibility Wind Dir Wind Speed Gust Speed Precip Events Conditions
12:53 AM 64.0 °F - 62.1 °F 93% 29.83 in 10.0 mi West 12.7 mph - N/A   Mostly Cloudy
1:53 AM 64.0 °F - 61.0 °F 90% 29.84 in 10.0 mi WNW 8.1 mph - N/A   Clear
2:53 AM 62.1 °F - 60.1 °F 93% 29.84 in 10.0 mi WSW 9.2 mph - N/A   Clear
3:53 AM 62.1 °F - 60.1 °F 93% 29.84 in 10.0 mi West 12.7 mph - N/A   Clear
4:53 AM 62.1 °F - 59.0 °F 90% 29.84 in 10.0 mi West 13.8 mph - N/A   Clear
6:53 AM 63.0 °F - 59.0 °F 87% 29.94 in 10.0 mi WNW 11.5 mph - N/A   Clear
8:53 AM 71.1 °F - 59.0 °F 66% 29.95 in 10.0 mi NNW 13.8 mph - N/A   Clear
9:53 AM 75.0 °F - 60.1 °F 60% 29.94 in 10.0 mi NNW 10.4 mph 18.4 mph N/A   Clear
10:53 AM 79.0 °F - 60.1 °F 52% 29.94 in 10.0 mi NNW 11.5 mph - N/A   Clear
11:53 AM 80.1 °F 80.6 °F 57.9 °F 47% 29.93 in 10.0 mi NNW 11.5 mph - N/A   Clear
12:53 PM 82.0 °F 82.0 °F 57.9 °F 44% 29.91 in 10.0 mi WNW 15.0 mph - N/A   Clear
1:53 PM 82.9 °F 82.6 °F 57.9 °F 42% 29.89 in 10.0 mi North 11.5 mph - N/A   Clear
2:53 PM 82.9 °F 82.6 °F 57.9 °F 42% 29.88 in 10.0 mi Variable 6.9 mph - N/A   Unknown
3:53 PM 84.9 °F 83.6 °F 55.0 °F 36% 29.87 in 10.0 mi Variable 3.5 mph - N/A   Clear
4:53 PM 82.9 °F 82.0 °F 55.0 °F 38% 29.87 in 10.0 mi WNW 8.1 mph - N/A   Mostly Cloudy
5:13 PM 75.0 °F - 53.1 °F 46% 30.07 in 10.0 mi West 16.1 mph 36.8 mph N/A Thunderstorm Mostly Cloudy
5:53 PM 73.0 °F - 57.9 °F 59% 29.91 in 10.0 mi WNW 10.4 mph - 0.00 in   Scattered Clouds
6:53 PM 78.1 °F - 55.0 °F 45% 29.87 in 10.0 mi West 3.5 mph - N/A   Clear
7:53 PM 72.0 °F - 57.0 °F 59% 29.89 in 10.0 mi West 9.2 mph - N/A   Clear
8:53 PM 70.0 °F - 54.0 °F 57% 29.90 in 10.0 mi SW 11.5 mph - N/A   Clear
9:53 PM 69.1 °F - 53.1 °F 57% 29.90 in 10.0 mi West 9.2 mph - N/A   Clear
11:53 PM 66.0 °F - 54.0 °F 65% 29.89 in 10.0 mi SW 10.4 mph - N/A   Clear